Time,TemperatureF,DewpointF,PressureIn,WindDirection,WindDirectionDegrees,WindSpeedMPH,WindSpeedGustMPH,Humidity,HourlyPrecipIn,Conditions,Clouds,dailyrainin,SoftwareType,DateUTC
2013-07-29 00:00:00,64.3,62.0,30.08,East,90,0.0,0.0,95,0.00,,,0.00,Rainwise IP-100,2013-07-29 04:00:00,
2013-07-29 00:01:00,64.3,62.0,30.08,East,90,0.0,0.0,95,0.00,,,0.00,Rainwise IP-100,2013-07-29 04:01:00,
2013-07-29 00:06:00,64.2,63.0,30.07,ESE,112,0.0,0.0,96,0.00,,,0.00,Rainwise IP-100,2013-07-29 04:06:00,
2013-07-29 00:11:00,64.1,63.0,30.08,SE,135,0.0,0.0,96,0.00,,,0.00,Rainwise IP-100,2013-07-29 04:11:00,
2013-07-29 00:16:00,64.1,63.0,30.09,ESE,112,0.0,0.0,96,0.00,,,0.00,Rainwise IP-100,2013-07-29 04:16:00,
2013-07-29 00:22:00,64.1,63.0,30.08,ESE,112,0.0,0.0,96,0.00,,,0.00,Rainwise IP-100,2013-07-29 04:22:00,
2013-07-29 00:27:00,64.1,63.0,30.08,ESE,112,0.0,0.0,96,0.00,,,0.00,Rainwise IP-100,2013-07-29 04:27:00,
2013-07-29 00:32:00,64.0,63.0,30.08,ESE,112,0.0,0.0,96,0.00,,,0.00,Rainwise IP-100,2013-07-29 04:32:00,
2013-07-29 00:37:00,64.0,63.0,30.08,ESE,112,0.0,0.0,96,0.00,,,0.00,Rainwise IP-100,2013-07-29 04:37:00,
2013-07-29 00:42:00,63.9,63.0,30.08,ESE,112,0.0,0.0,96,0.00,,,0.00,Rainwise IP-100,2013-07-29 04:42:00,
2013-07-29 00:47:00,63.9,63.0,30.07,NNW,337,0.0,0.0,96,0.00,,,0.00,Rainwise IP-100,2013-07-29 04:47:00,
2013-07-29 00:52:00,63.8,62.0,30.08,East,90,0.0,0.0,96,0.00,,,0.00,Rainwise IP-100,2013-07-29 04:52:00,
2013-07-29 00:57:00,63.8,62.0,30.08,NW,315,0.0,0.0,96,0.00,,,0.00,Rainwise IP-100,2013-07-29 04:57:00,
2013-07-29 01:02:00,63.8,62.0,30.08,NNW,337,0.0,0.0,97,0.00,,,0.00,Rainwise IP-100,2013-07-29 05:02:00,
2013-07-29 01:07:00,63.7,62.0,30.08,NNE,22,0.0,0.0,96,0.00,,,0.00,Rainwise IP-100,2013-07-29 05:07:00,
2013-07-29 01:12:00,63.6,62.0,30.08,East,90,0.0,0.0,96,0.00,,,0.00,Rainwise IP-100,2013-07-29 05:12:00,
2013-07-29 01:17:00,63.5,62.0,30.08,ESE,112,0.0,0.0,96,0.00,,,0.00,Rainwise IP-100,2013-07-29 05:17:00,
2013-07-29 01:22:00,63.4,62.0,30.08,ENE,67,0.0,0.0,97,0.00,,,0.00,Rainwise IP-100,2013-07-29 05:22:00,
2013-07-29 01:27:00,63.2,62.0,30.08,ESE,112,0.0,0.0,98,0.00,,,0.00,Rainwise IP-100,2013-07-29 05:27:00,
2013-07-29 01:32:00,63.0,62.0,30.07,ENE,67,0.0,0.0,98,0.00,,,0.00,Rainwise IP-100,2013-07-29 05:32:00,
2013-07-29 01:37:00,62.8,62.0,30.07,ESE,112,0.0,0.0,99,0.00,,,0.00,Rainwise IP-100,2013-07-29 05:37:00,
2013-07-29 01:42:00,62.7,62.0,30.07,SE,135,0.0,0.0,99,0.00,,,0.00,Rainwise IP-100,2013-07-29 05:42:00,
2013-07-29 01:47:00,62.7,62.0,30.07,ESE,112,0.0,0.0,99,0.00,,,0.00,Rainwise IP-100,2013-07-29 05:47:00,
2013-07-29 01:52:00,62.6,62.0,30.06,NNE,22,0.0,0.0,100,0.00,,,0.00,Rainwise IP-100,2013-07-29 05:52:00,
2013-07-29 01:57:00,62.6,62.0,30.07,ENE,67,0.0,0.0,100,0.00,,,0.00,Rainwise IP-100,2013-07-29 05:57:00,
2013-07-29 02:02:00,62.6,62.0,30.06,SSW,202,0.0,0.0,100,0.00,,,0.00,Rainwise IP-100,2013-07-29 06:02:00,
2013-07-29 02:07:00,62.5,62.0,30.06,ENE,67,0.0,0.0,100,0.00,,,0.00,Rainwise IP-100,2013-07-29 06:07:00,
2013-07-29 02:12:00,62.4,62.0,30.07,ESE,112,0.0,0.0,100,0.00,,,0.00,Rainwise IP-100,2013-07-29 06:12:00,
2013-07-29 02:17:00,62.3,62.0,30.06,SE,135,0.0,0.0,100,0.00,,,0.00,Rainwise IP-100,2013-07-29 06:17:00,
2013-07-29 02:22:00,62.3,62.0,30.06,SE,135,0.0,0.0,100,0.06,,,0.01,Rainwise IP-100,2013-07-29 06:22:00,
2013-07-29 02:27:00,62.1,62.0,30.06,ESE,112,0.0,0.0,100,0.06,,,0.01,Rainwise IP-100,2013-07-29 06:27:00,
2013-07-29 02:32:00,62.0,62.0,30.06,SE,135,0.0,0.0,100,0.00,,,0.01,Rainwise IP-100,2013-07-29 06:32:00,
2013-07-29 02:37:00,61.9,62.0,30.06,ESE,112,0.0,0.0,100,0.00,,,0.01,Rainwise IP-100,2013-07-29 06:37:00,
2013-07-29 02:42:00,61.8,61.0,30.06,ESE,112,0.0,0.0,100,0.00,,,0.01,Rainwise IP-100,2013-07-29 06:42:00,
2013-07-29 02:47:00,61.8,61.0,30.06,SSW,202,0.0,0.0,100,0.00,,,0.01,Rainwise IP-100,2013-07-29 06:47:00,
2013-07-29 02:52:00,61.8,61.0,30.06,SSE,157,0.0,0.0,100,0.00,,,0.01,Rainwise IP-100,2013-07-29 06:52:00,
2013-07-29 02:57:00,61.8,61.0,30.06,ENE,67,0.0,0.0,100,0.00,,,0.01,Rainwise IP-100,2013-07-29 06:57:00,
2013-07-29 03:02:00,61.9,62.0,30.05,NNE,22,0.0,0.0,100,0.00,,,0.01,Rainwise IP-100,2013-07-29 07:02:00,
2013-07-29 03:07:00,61.9,62.0,30.05,NNE,22,0.0,0.0,100,0.00,,,0.01,Rainwise IP-100,2013-07-29 07:07:00,
2013-07-29 03:12:00,62.0,62.0,30.05,ESE,112,0.0,0.0,100,0.00,,,0.01,Rainwise IP-100,2013-07-29 07:12:00,
2013-07-29 03:17:00,62.0,62.0,30.05,ESE,112,0.0,0.0,100,0.00,,,0.01,Rainwise IP-100,2013-07-29 07:17:00,
2013-07-29 03:22:00,61.9,62.0,30.06,ESE,112,0.0,0.0,100,0.00,,,0.01,Rainwise IP-100,2013-07-29 07:22:00,
2013-07-29 03:27:00,61.9,62.0,30.05,ESE,112,0.0,0.0,100,0.00,,,0.01,Rainwise IP-100,2013-07-29 07:27:00,
2013-07-29 03:32:00,61.9,62.0,30.06,NNE,22,0.0,0.0,100,0.00,,,0.01,Rainwise IP-100,2013-07-29 07:32:00,
2013-07-29 03:37:00,62.0,62.0,30.06,ESE,112,0.0,0.0,100,0.00,,,0.01,Rainwise IP-100,2013-07-29 07:37:00,
2013-07-29 03:42:00,61.9,62.0,30.05,WNW,292,0.0,0.0,100,0.00,,,0.01,Rainwise IP-100,2013-07-29 07:42:00,
2013-07-29 03:47:00,61.9,62.0,30.05,NE,45,0.0,0.0,100,0.00,,,0.01,Rainwise IP-100,2013-07-29 07:47:00,
2013-07-29 03:52:00,61.8,61.0,30.05,ESE,112,0.0,0.0,100,0.00,,,0.01,Rainwise IP-100,2013-07-29 07:52:00,
2013-07-29 03:57:00,61.8,61.0,30.04,SSE,157,0.0,0.0,100,0.00,,,0.01,Rainwise IP-100,2013-07-29 07:57:00,
2013-07-29 04:02:00,61.8,61.0,30.04,ESE,112,0.0,0.0,100,0.00,,,0.01,Rainwise IP-100,2013-07-29 08:02:00,
2013-07-29 04:07:00,61.8,61.0,30.05,SE,135,0.0,0.0,100,0.00,,,0.01,Rainwise IP-100,2013-07-29 08:07:00,
2013-07-29 04:12:00,61.7,61.0,30.07,East,90,0.0,0.0,100,0.00,,,0.01,Rainwise IP-100,2013-07-29 08:12:00,
2013-07-29 04:17:00,61.8,61.0,30.06,ENE,67,0.0,0.0,100,0.00,,,0.01,Rainwise IP-100,2013-07-29 08:17:00,
2013-07-29 04:22:00,61.7,61.0,30.06,SSE,157,0.0,0.0,100,0.00,,,0.01,Rainwise IP-100,2013-07-29 08:22:00,
2013-07-29 04:27:00,61.7,61.0,30.06,NNE,22,0.0,0.0,100,0.00,,,0.01,Rainwise IP-100,2013-07-29 08:27:00,
2013-07-29 04:32:00,61.7,61.0,30.07,ESE,112,0.0,0.0,100,0.00,,,0.01,Rainwise IP-100,2013-07-29 08:32:00,
2013-07-29 04:37:00,61.7,61.0,30.06,South,180,0.0,0.0,100,0.00,,,0.01,Rainwise IP-100,2013-07-29 08:37:00,
2013-07-29 04:42:00,61.7,61.0,30.07,ESE,112,0.0,0.0,100,0.00,,,0.01,Rainwise IP-100,2013-07-29 08:42:00,
2013-07-29 04:47:00,61.7,61.0,30.07,SSE,157,0.0,0.0,100,0.00,,,0.01,Rainwise IP-100,2013-07-29 08:47:00,
2013-07-29 04:52:00,61.7,61.0,30.08,SSE,157,0.0,0.0,100,0.00,,,0.01,Rainwise IP-100,2013-07-29 08:52:00,
2013-07-29 04:57:00,61.7,61.0,30.07,ENE,67,0.0,0.0,100,0.00,,,0.01,Rainwise IP-100,2013-07-29 08:57:00,
2013-07-29 05:02:00,61.7,61.0,30.08,NNE,22,0.0,0.0,100,0.00,,,0.01,Rainwise IP-100,2013-07-29 09:02:00,
2013-07-29 05:07:00,61.7,61.0,30.08,NNE,22,0.0,0.0,100,0.00,,,0.01,Rainwise IP-100,2013-07-29 09:07:00,
2013-07-29 05:12:00,61.7,61.0,30.07,NNE,22,0.0,0.0,100,0.00,,,0.01,Rainwise IP-100,2013-07-29 09:12:00,
2013-07-29 05:17:00,61.7,61.0,30.07,ESE,112,0.0,0.0,100,0.00,,,0.01,Rainwise IP-100,2013-07-29 09:17:00,
2013-07-29 05:22:00,61.6,61.0,30.07,ESE,112,0.0,0.0,100,0.00,,,0.01,Rainwise IP-100,2013-07-29 09:22:00,
2013-07-29 05:27:00,61.5,61.0,30.07,ESE,112,0.0,0.0,100,0.00,,,0.01,Rainwise IP-100,2013-07-29 09:27:00,
2013-07-29 05:32:00,61.5,61.0,30.07,SE,135,0.0,0.0,100,0.00,,,0.01,Rainwise IP-100,2013-07-29 09:32:00,
2013-07-29 05:37:00,61.6,61.0,30.07,SE,135,0.0,0.0,100,0.00,,,0.01,Rainwise IP-100,2013-07-29 09:37:00,
2013-07-29 05:42:00,61.5,61.0,30.07,ESE,112,0.0,0.0,100,0.00,,,0.01,Rainwise IP-100,2013-07-29 09:42:00,
2013-07-29 05:47:00,61.5,61.0,30.07,ESE,112,0.0,0.0,100,0.00,,,0.01,Rainwise IP-100,2013-07-29 09:47:00,
2013-07-29 05:52:00,61.6,61.0,30.07,ESE,112,0.0,0.0,100,0.00,,,0.01,Rainwise IP-100,2013-07-29 09:52:00,
2013-07-29 05:57:00,61.7,61.0,30.07,SSE,157,0.0,0.0,100,0.00,,,0.01,Rainwise IP-100,2013-07-29 09:57:00,
2013-07-29 06:02:00,61.7,61.0,30.07,SSE,157,0.0,0.0,100,0.00,,,0.01,Rainwise IP-100,2013-07-29 10:02:00,
2013-07-29 06:07:00,61.7,61.0,30.07,SSE,157,0.0,0.0,100,0.00,,,0.01,Rainwise IP-100,2013-07-29 10:07:00,
2013-07-29 06:12:00,61.7,61.0,30.08,SSE,157,0.0,0.0,100,0.00,,,0.01,Rainwise IP-100,2013-07-29 10:12:00,
2013-07-29 06:17:00,61.7,61.0,30.07,SSE,157,0.0,0.0,100,0.00,,,0.01,Rainwise IP-100,2013-07-29 10:17:00,
2013-07-29 06:22:00,61.7,61.0,30.08,ENE,67,0.0,1.0,100,0.00,,,0.01,Rainwise IP-100,2013-07-29 10:22:00,
2013-07-29 06:27:00,61.7,61.0,30.08,West,270,0.0,0.0,100,0.00,,,0.01,Rainwise IP-100,2013-07-29 10:27:00,
2013-07-29 06:32:00,61.7,61.0,30.08,West,270,0.0,0.0,100,0.00,,,0.01,Rainwise IP-100,2013-07-29 10:32:00,
2013-07-29 06:37:00,61.7,61.0,30.08,West,270,0.0,3.0,100,0.00,,,0.01,Rainwise IP-100,2013-07-29 10:37:00,
2013-07-29 06:42:00,61.7,61.0,30.09,West,270,0.0,0.0,100,0.00,,,0.01,Rainwise IP-100,2013-07-29 10:42:00,
2013-07-29 06:47:00,61.7,61.0,30.09,West,270,0.0,0.0,100,0.00,,,0.01,Rainwise IP-100,2013-07-29 10:47:00,
2013-07-29 06:52:00,61.7,61.0,30.09,West,270,0.0,0.0,100,0.00,,,0.01,Rainwise IP-100,2013-07-29 10:52:00,
2013-07-29 06:57:00,61.8,61.0,30.09,NNW,337,0.0,0.0,100,0.00,,,0.01,Rainwise IP-100,2013-07-29 10:57:00,
2013-07-29 07:02:00,61.9,62.0,30.09,NNW,337,0.0,3.0,100,0.00,,,0.01,Rainwise IP-100,2013-07-29 11:02:00,
2013-07-29 07:07:00,62.0,62.0,30.08,NNW,337,0.0,3.0,100,0.00,,,0.01,Rainwise IP-100,2013-07-29 11:07:00,
2013-07-29 07:12:00,62.1,62.0,30.08,NNW,337,0.0,1.0,100,0.00,,,0.01,Rainwise IP-100,2013-07-29 11:12:00,
2013-07-29 07:17:00,62.2,62.0,30.08,NNW,337,0.0,0.0,100,0.00,,,0.01,Rainwise IP-100,2013-07-29 11:17:00,
2013-07-29 07:22:00,62.1,62.0,30.08,NNW,337,0.0,3.0,100,0.00,,,0.01,Rainwise IP-100,2013-07-29 11:22:00,
2013-07-29 07:27:00,62.1,62.0,30.09,SSW,202,0.0,1.0,100,0.00,,,0.01,Rainwise IP-100,2013-07-29 11:27:00,
2013-07-29 07:32:00,62.2,62.0,30.09,SSW,202,0.0,0.0,100,0.00,,,0.01,Rainwise IP-100,2013-07-29 11:32:00,
2013-07-29 07:37:00,62.4,62.0,30.07,East,90,0.0,3.0,100,0.00,,,0.01,Rainwise IP-100,2013-07-29 11:37:00,
2013-07-29 07:42:00,62.5,62.0,30.07,ESE,112,0.0,4.0,100,0.00,,,0.01,Rainwise IP-100,2013-07-29 11:42:00,
2013-07-29 07:47:00,62.7,62.0,30.07,ESE,112,2.0,3.0,100,0.00,,,0.01,Rainwise IP-100,2013-07-29 11:47:00,
2013-07-29 07:52:00,62.7,62.0,30.07,WNW,292,0.0,3.0,100,0.00,,,0.01,Rainwise IP-100,2013-07-29 11:52:00,
2013-07-29 07:57:00,62.7,62.0,30.07,ESE,112,1.0,4.0,100,0.00,,,0.01,Rainwise IP-100,2013-07-29 11:57:00,
2013-07-29 08:02:00,62.6,62.0,30.07,ESE,112,2.0,3.0,100,0.00,,,0.01,Rainwise IP-100,2013-07-29 12:02:00,
2013-07-29 08:07:00,62.6,62.0,30.07,SSE,157,1.0,4.0,100,0.00,,,0.01,Rainwise IP-100,2013-07-29 12:07:00,
2013-07-29 08:12:00,62.6,62.0,30.07,ESE,112,0.0,3.0,100,0.00,,,0.01,Rainwise IP-100,2013-07-29 12:12:00,
2013-07-29 08:17:00,62.7,62.0,30.07,ESE,112,1.0,4.0,100,0.00,,,0.01,Rainwise IP-100,2013-07-29 12:17:00,
2013-07-29 08:22:00,62.8,62.0,30.08,SE,135,0.0,2.0,100,0.00,,,0.01,Rainwise IP-100,2013-07-29 12:22:00,
2013-07-29 08:27:00,62.9,63.0,30.08,SSE,157,2.0,4.0,100,0.00,,,0.01,Rainwise IP-100,2013-07-29 12:27:00,
2013-07-29 08:32:00,63.0,63.0,30.08,SSE,157,0.0,3.0,100,0.00,,,0.01,Rainwise IP-100,2013-07-29 12:32:00,
2013-07-29 08:37:00,63.2,63.0,30.09,SSW,202,0.0,2.0,100,0.00,,,0.01,Rainwise IP-100,2013-07-29 12:37:00,
2013-07-29 08:42:00,63.4,63.0,30.09,SSE,157,0.0,2.0,100,0.00,,,0.01,Rainwise IP-100,2013-07-29 12:42:00,
2013-07-29 08:47:00,63.6,63.0,30.09,SSE,157,0.0,0.0,100,0.00,,,0.01,Rainwise IP-100,2013-07-29 12:47:00,
2013-07-29 08:52:00,63.8,63.0,30.09,SSW,202,0.0,1.0,100,0.00,,,0.01,Rainwise IP-100,2013-07-29 12:52:00,
2013-07-29 08:57:00,64.3,64.0,30.09,WSW,247,1.0,1.0,100,0.00,,,0.01,Rainwise IP-100,2013-07-29 12:57:00,
2013-07-29 09:02:00,64.8,64.0,30.09,WSW,247,0.0,1.0,100,0.00,,,0.01,Rainwise IP-100,2013-07-29 13:02:00,
2013-07-29 09:07:00,65.1,65.0,30.09,WSW,247,0.0,0.0,100,0.00,,,0.01,Rainwise IP-100,2013-07-29 13:07:00,
2013-07-29 09:12:00,65.2,64.0,30.09,SW,225,0.0,2.0,99,0.00,,,0.01,Rainwise IP-100,2013-07-29 13:12:00,
2013-07-29 09:17:00,65.2,64.0,30.09,SSE,157,0.0,2.0,99,0.00,,,0.01,Rainwise IP-100,2013-07-29 13:17:00,
2013-07-29 09:22:00,65.2,64.0,30.09,SE,135,2.0,3.0,98,0.00,,,0.01,Rainwise IP-100,2013-07-29 13:22:00,
2013-07-29 09:27:00,65.0,64.0,30.09,ESE,112,2.0,3.0,98,0.00,,,0.01,Rainwise IP-100,2013-07-29 13:27:00,
2013-07-29 09:32:00,65.0,64.0,30.09,SSW,202,1.0,2.0,97,0.00,,,0.01,Rainwise IP-100,2013-07-29 13:32:00,
2013-07-29 09:37:00,65.6,64.0,30.10,SSE,157,2.0,5.0,97,0.00,,,0.01,Rainwise IP-100,2013-07-29 13:37:00,
2013-07-29 09:42:00,65.9,64.0,30.10,SSE,157,0.0,3.0,96,0.00,,,0.01,Rainwise IP-100,2013-07-29 13:42:00,
2013-07-29 09:47:00,66.0,64.0,30.09,ESE,112,0.0,2.0,96,0.00,,,0.01,Rainwise IP-100,2013-07-29 13:47:00,
2013-07-29 09:52:00,66.4,65.0,30.09,South,180,0.0,2.0,95,0.00,,,0.01,Rainwise IP-100,2013-07-29 13:52:00,
2013-07-29 09:57:00,66.9,66.0,30.09,SE,135,1.0,4.0,95,0.00,,,0.01,Rainwise IP-100,2013-07-29 13:57:00,
2013-07-29 10:02:00,67.2,65.0,30.09,SSE,157,2.0,3.0,94,0.00,,,0.01,Rainwise IP-100,2013-07-29 14:02:00,
2013-07-29 10:07:00,67.4,65.0,30.09,SSE,157,2.0,3.0,93,0.00,,,0.01,Rainwise IP-100,2013-07-29 14:07:00,
2013-07-29 10:12:00,67.3,65.0,30.09,ENE,67,0.0,3.0,93,0.00,,,0.01,Rainwise IP-100,2013-07-29 14:12:00,
2013-07-29 10:17:00,67.2,65.0,30.10,SSE,157,1.0,3.0,93,0.00,,,0.01,Rainwise IP-100,2013-07-29 14:17:00,
2013-07-29 10:22:00,67.5,65.0,30.09,NW,315,0.0,3.0,93,0.00,,,0.01,Rainwise IP-100,2013-07-29 14:22:00,
2013-07-29 10:27:00,68.1,65.0,30.09,SE,135,0.0,1.0,92,0.00,,,0.01,Rainwise IP-100,2013-07-29 14:27:00,
2013-07-29 10:32:00,68.5,66.0,30.09,South,180,0.0,0.0,92,0.00,,,0.01,Rainwise IP-100,2013-07-29 14:32:00,
2013-07-29 10:37:00,68.9,66.0,30.09,SSW,202,0.0,2.0,91,0.00,,,0.01,Rainwise IP-100,2013-07-29 14:37:00,
2013-07-29 10:42:00,69.5,66.0,30.09,SSE,157,2.0,3.0,90,0.00,,,0.01,Rainwise IP-100,2013-07-29 14:42:00,
2013-07-29 10:47:00,69.7,66.0,30.09,SSW,202,4.0,4.0,89,0.00,,,0.01,Rainwise IP-100,2013-07-29 14:47:00,
2013-07-29 10:52:00,69.5,66.0,30.09,WSW,247,0.0,4.0,89,0.00,,,0.01,Rainwise IP-100,2013-07-29 14:52:00,
2013-07-29 10:57:00,69.7,66.0,30.09,WSW,247,0.0,4.0,89,0.00,,,0.01,Rainwise IP-100,2013-07-29 14:57:00,
2013-07-29 11:02:00,70.1,66.0,30.09,ENE,67,0.0,1.0,89,0.00,,,0.01,Rainwise IP-100,2013-07-29 15:02:00,
2013-07-29 11:07:00,70.3,66.0,30.09,SSW,202,0.0,3.0,88,0.00,,,0.01,Rainwise IP-100,2013-07-29 15:07:00,
2013-07-29 11:12:00,70.6,66.0,30.09,SSW,202,0.0,0.0,87,0.00,,,0.01,Rainwise IP-100,2013-07-29 15:12:00,
2013-07-29 11:17:00,70.7,66.0,30.09,SSW,202,0.0,0.0,86,0.00,,,0.01,Rainwise IP-100,2013-07-29 15:17:00,
2013-07-29 11:22:00,70.7,66.0,30.09,ESE,112,0.0,1.0,86,0.00,,,0.01,Rainwise IP-100,2013-07-29 15:22:00,
2013-07-29 11:27:00,70.2,66.0,30.09,South,180,0.0,4.0,86,0.00,,,0.01,Rainwise IP-100,2013-07-29 15:27:00,
2013-07-29 11:32:00,70.1,66.0,30.09,SSW,202,0.0,0.0,87,0.00,,,0.01,Rainwise IP-100,2013-07-29 15:32:00,
2013-07-29 11:37:00,70.7,66.0,30.09,South,180,0.0,0.0,86,0.00,,,0.01,Rainwise IP-100,2013-07-29 15:37:00,
2013-07-29 11:42:00,70.9,66.0,30.09,South,180,0.0,0.0,85,0.00,,,0.01,Rainwise IP-100,2013-07-29 15:42:00,
2013-07-29 11:47:00,71.1,66.0,30.09,SSE,157,0.0,0.0,85,0.00,,,0.01,Rainwise IP-100,2013-07-29 15:47:00,
2013-07-29 11:52:00,71.3,66.0,30.10,SSE,157,0.0,0.0,85,0.00,,,0.01,Rainwise IP-100,2013-07-29 15:52:00,
2013-07-29 11:57:00,71.1,66.0,30.10,SSW,202,0.0,0.0,86,0.00,,,0.01,Rainwise IP-100,2013-07-29 15:57:00,
2013-07-29 12:02:00,70.9,66.0,30.10,SSW,202,0.0,3.0,86,0.00,,,0.01,Rainwise IP-100,2013-07-29 16:02:00,
2013-07-29 12:07:00,71.1,66.0,30.09,West,270,0.0,5.0,87,0.00,,,0.01,Rainwise IP-100,2013-07-29 16:07:00,
2013-07-29 12:12:00,71.1,66.0,30.09,SSE,157,0.0,0.0,87,0.00,,,0.01,Rainwise IP-100,2013-07-29 16:12:00,
2013-07-29 12:17:00,71.3,67.0,30.09,WSW,247,0.0,0.0,87,0.00,,,0.01,Rainwise IP-100,2013-07-29 16:17:00,
2013-07-29 12:22:00,71.6,67.0,30.09,South,180,0.0,0.0,86,0.00,,,0.01,Rainwise IP-100,2013-07-29 16:22:00,
2013-07-29 12:27:00,71.4,66.0,30.09,ESE,112,0.0,0.0,86,0.00,,,0.01,Rainwise IP-100,2013-07-29 16:27:00,
2013-07-29 12:32:00,70.9,66.0,30.09,SE,135,0.0,0.0,86,0.00,,,0.01,Rainwise IP-100,2013-07-29 16:32:00,
2013-07-29 12:37:00,71.0,66.0,30.09,SSW,202,0.0,0.0,86,0.00,,,0.01,Rainwise IP-100,2013-07-29 16:37:00,
2013-07-29 12:42:00,71.3,66.0,30.09,SSW,202,0.0,0.0,85,0.00,,,0.01,Rainwise IP-100,2013-07-29 16:42:00,
2013-07-29 12:47:00,71.1,66.0,30.10,South,180,0.0,0.0,85,0.00,,,0.01,Rainwise IP-100,2013-07-29 16:47:00,
2013-07-29 12:52:00,70.8,66.0,30.09,SSE,157,0.0,0.0,86,0.00,,,0.01,Rainwise IP-100,2013-07-29 16:52:00,
2013-07-29 12:57:00,70.2,66.0,30.09,ESE,112,0.0,0.0,86,0.00,,,0.01,Rainwise IP-100,2013-07-29 16:57:00,
2013-07-29 13:02:00,69.9,66.0,30.10,SE,135,0.0,0.0,87,0.00,,,0.01,Rainwise IP-100,2013-07-29 17:02:00,
2013-07-29 13:07:00,70.0,66.0,30.09,SSE,157,0.0,0.0,87,0.00,,,0.01,Rainwise IP-100,2013-07-29 17:07:00,
2013-07-29 13:12:00,70.4,66.0,30.09,SSW,202,0.0,0.0,87,0.00,,,0.01,Rainwise IP-100,2013-07-29 17:12:00,
2013-07-29 13:17:00,71.0,66.0,30.10,SSW,202,0.0,0.0,86,0.00,,,0.01,Rainwise IP-100,2013-07-29 17:17:00,
2013-07-29 13:22:00,71.4,66.0,30.10,South,180,0.0,0.0,85,0.00,,,0.01,Rainwise IP-100,2013-07-29 17:22:00,
2013-07-29 13:27:00,71.6,66.0,30.10,SSW,202,0.0,0.0,85,0.00,,,0.01,Rainwise IP-100,2013-07-29 17:27:00,
2013-07-29 13:32:00,71.6,66.0,30.10,SSW,202,0.0,0.0,85,0.00,,,0.01,Rainwise IP-100,2013-07-29 17:32:00,
2013-07-29 13:37:00,71.6,66.0,30.10,SSE,157,0.0,0.0,85,0.00,,,0.01,Rainwise IP-100,2013-07-29 17:37:00,
2013-07-29 13:42:00,71.8,66.0,30.10,SSE,157,0.0,0.0,85,0.00,,,0.01,Rainwise IP-100,2013-07-29 17:42:00,
2013-07-29 13:47:00,71.9,67.0,30.10,East,90,0.0,0.0,85,0.00,,,0.01,Rainwise IP-100,2013-07-29 17:47:00,
2013-07-29 13:52:00,71.7,66.0,30.10,East,90,0.0,0.0,85,0.00,,,0.01,Rainwise IP-100,2013-07-29 17:52:00,
2013-07-29 13:57:00,71.7,66.0,30.09,SSW,202,0.0,0.0,85,0.00,,,0.01,Rainwise IP-100,2013-07-29 17:57:00,
2013-07-29 14:02:00,71.9,67.0,30.09,South,180,0.0,0.0,85,0.00,,,0.01,Rainwise IP-100,2013-07-29 18:02:00,
2013-07-29 14:07:00,71.9,67.0,30.09,SSE,157,0.0,0.0,85,0.00,,,0.01,Rainwise IP-100,2013-07-29 18:07:00,
2013-07-29 14:12:00,72.2,67.0,30.09,SSE,157,0.0,0.0,85,0.00,,,0.01,Rainwise IP-100,2013-07-29 18:12:00,
2013-07-29 14:17:00,72.5,67.0,30.09,ESE,112,0.0,0.0,84,0.00,,,0.01,Rainwise IP-100,2013-07-29 18:17:00,
2013-07-29 14:22:00,72.7,67.0,30.09,SSE,157,0.0,0.0,83,0.00,,,0.01,Rainwise IP-100,2013-07-29 18:22:00,
2013-07-29 14:27:00,72.6,67.0,30.09,SW,225,0.0,0.0,83,0.00,,,0.01,Rainwise IP-100,2013-07-29 18:27:00,
2013-07-29 14:32:00,72.4,66.0,30.09,SSW,202,0.0,0.0,83,0.00,,,0.01,Rainwise IP-100,2013-07-29 18:32:00,
2013-07-29 14:37:00,72.9,67.0,30.09,SSE,157,0.0,0.0,83,0.00,,,0.01,Rainwise IP-100,2013-07-29 18:37:00,
2013-07-29 14:42:00,73.0,67.0,30.09,SSW,202,0.0,0.0,82,0.00,,,0.01,Rainwise IP-100,2013-07-29 18:42:00,
2013-07-29 14:47:00,73.1,67.0,30.09,South,180,0.0,0.0,82,0.00,,,0.01,Rainwise IP-100,2013-07-29 18:47:00,
2013-07-29 14:52:00,73.1,67.0,30.09,WSW,247,0.0,0.0,82,0.00,,,0.01,Rainwise IP-100,2013-07-29 18:52:00,
2013-07-29 14:57:00,73.1,67.0,30.09,SSW,202,0.0,0.0,83,0.00,,,0.01,Rainwise IP-100,2013-07-29 18:57:00,
2013-07-29 15:02:00,72.9,67.0,30.09,SSW,202,0.0,0.0,83,0.00,,,0.01,Rainwise IP-100,2013-07-29 19:02:00,
2013-07-29 15:07:00,72.7,67.0,30.10,SSW,202,0.0,0.0,84,0.00,,,0.01,Rainwise IP-100,2013-07-29 19:07:00,
2013-07-29 15:12:00,72.6,67.0,30.10,SE,135,0.0,0.0,84,0.00,,,0.01,Rainwise IP-100,2013-07-29 19:12:00,
2013-07-29 15:17:00,72.2,67.0,30.09,SE,135,0.0,0.0,85,0.00,,,0.01,Rainwise IP-100,2013-07-29 19:17:00,
2013-07-29 15:22:00,71.9,67.0,30.09,SSE,157,0.0,0.0,85,0.00,,,0.01,Rainwise IP-100,2013-07-29 19:22:00,
2013-07-29 15:27:00,71.6,66.0,30.09,East,90,0.0,0.0,85,0.00,,,0.01,Rainwise IP-100,2013-07-29 19:27:00,
2013-07-29 15:32:00,71.1,66.0,30.09,ENE,67,0.0,0.0,86,0.00,,,0.01,Rainwise IP-100,2013-07-29 19:32:00,
2013-07-29 15:37:00,70.7,66.0,30.08,SE,135,0.0,0.0,86,0.00,,,0.01,Rainwise IP-100,2013-07-29 19:37:00,
2013-07-29 15:42:00,70.6,66.0,30.08,ESE,112,0.0,0.0,86,0.00,,,0.01,Rainwise IP-100,2013-07-29 19:42:00,
2013-07-29 15:47:00,70.6,66.0,30.07,ESE,112,0.0,0.0,86,0.00,,,0.01,Rainwise IP-100,2013-07-29 19:47:00,
2013-07-29 15:52:00,70.9,66.0,30.08,SSE,157,0.0,0.0,86,0.00,,,0.01,Rainwise IP-100,2013-07-29 19:52:00,
2013-07-29 15:57:00,71.1,66.0,30.07,ESE,112,0.0,0.0,85,0.00,,,0.01,Rainwise IP-100,2013-07-29 19:57:00,
2013-07-29 16:02:00,71.1,66.0,30.07,ENE,67,0.0,0.0,85,0.00,,,0.01,Rainwise IP-100,2013-07-29 20:02:00,
2013-07-29 16:07:00,71.5,66.0,30.07,ESE,112,0.0,0.0,85,0.00,,,0.01,Rainwise IP-100,2013-07-29 20:07:00,
2013-07-29 16:12:00,71.5,66.0,30.07,ESE,112,0.0,0.0,85,0.00,,,0.01,Rainwise IP-100,2013-07-29 20:12:00,
2013-07-29 16:17:00,71.1,66.0,30.07,SSE,157,0.0,0.0,84,0.00,,,0.01,Rainwise IP-100,2013-07-29 20:17:00,
2013-07-29 16:22:00,71.3,66.0,30.06,SSE,157,0.0,0.0,84,0.00,,,0.01,Rainwise IP-100,2013-07-29 20:22:00,
2013-07-29 16:27:00,71.0,66.0,30.07,East,90,0.0,0.0,84,0.00,,,0.01,Rainwise IP-100,2013-07-29 20:27:00,
2013-07-29 16:32:00,70.6,66.0,30.07,South,180,0.0,0.0,85,0.00,,,0.01,Rainwise IP-100,2013-07-29 20:32:00,
2013-07-29 16:37:00,70.7,66.0,30.06,East,90,0.0,0.0,85,0.00,,,0.01,Rainwise IP-100,2013-07-29 20:37:00,
2013-07-29 16:42:00,70.9,66.0,30.07,SE,135,0.0,0.0,85,0.00,,,0.01,Rainwise IP-100,2013-07-29 20:42:00,
2013-07-29 16:47:00,71.0,66.0,30.07,ESE,112,0.0,0.0,85,0.00,,,0.01,Rainwise IP-100,2013-07-29 20:47:00,
2013-07-29 16:52:00,70.8,66.0,30.07,SSW,202,0.0,0.0,85,0.00,,,0.01,Rainwise IP-100,2013-07-29 20:52:00,
2013-07-29 16:57:00,70.8,66.0,30.07,SSE,157,0.0,0.0,85,0.00,,,0.01,Rainwise IP-100,2013-07-29 20:57:00,
2013-07-29 17:02:00,70.9,66.0,30.07,SSE,157,0.0,0.0,85,0.00,,,0.01,Rainwise IP-100,2013-07-29 21:02:00,
2013-07-29 17:07:00,70.6,66.0,30.07,SSW,202,0.0,0.0,86,0.00,,,0.01,Rainwise IP-100,2013-07-29 21:07:00,
2013-07-29 17:12:00,70.6,66.0,30.08,SSE,157,0.0,0.0,86,0.00,,,0.01,Rainwise IP-100,2013-07-29 21:12:00,
2013-07-29 17:17:00,70.6,66.0,30.08,SSE,157,0.0,0.0,86,0.00,,,0.01,Rainwise IP-100,2013-07-29 21:17:00,
2013-07-29 17:22:00,70.4,66.0,30.08,SSE,157,0.0,0.0,86,0.00,,,0.01,Rainwise IP-100,2013-07-29 21:22:00,
2013-07-29 17:27:00,70.4,66.0,30.08,South,180,0.0,0.0,86,0.00,,,0.01,Rainwise IP-100,2013-07-29 21:27:00,
2013-07-29 17:32:00,70.5,66.0,30.08,SSE,157,0.0,0.0,86,0.00,,,0.01,Rainwise IP-100,2013-07-29 21:32:00,
2013-07-29 17:37:00,70.3,66.0,30.08,SSE,157,0.0,0.0,86,0.00,,,0.01,Rainwise IP-100,2013-07-29 21:37:00,
2013-07-29 17:42:00,70.4,66.0,30.08,SSW,202,0.0,0.0,86,0.00,,,0.01,Rainwise IP-100,2013-07-29 21:42:00,
2013-07-29 17:47:00,70.3,66.0,30.09,SSW,202,0.0,0.0,86,0.00,,,0.01,Rainwise IP-100,2013-07-29 21:47:00,
2013-07-29 17:52:00,70.2,66.0,30.09,SSW,202,0.0,0.0,87,0.00,,,0.01,Rainwise IP-100,2013-07-29 21:52:00,
2013-07-29 17:57:00,70.2,66.0,30.09,SSW,202,0.0,0.0,87,0.00,,,0.01,Rainwise IP-100,2013-07-29 21:57:00,
2013-07-29 18:02:00,69.8,66.0,30.09,SSE,157,0.0,0.0,87,0.00,,,0.01,Rainwise IP-100,2013-07-29 22:02:00,
2013-07-29 18:07:00,69.3,65.0,30.09,South,180,0.0,0.0,88,0.00,,,0.01,Rainwise IP-100,2013-07-29 22:07:00,
2013-07-29 18:12:00,68.9,65.0,30.09,SSW,202,0.0,0.0,88,0.00,,,0.01,Rainwise IP-100,2013-07-29 22:12:00,
2013-07-29 18:17:00,68.5,65.0,30.09,South,180,0.0,0.0,89,0.00,,,0.01,Rainwise IP-100,2013-07-29 22:17:00,
2013-07-29 18:22:00,68.3,64.0,30.09,SSE,157,0.0,0.0,89,0.00,,,0.01,Rainwise IP-100,2013-07-29 22:22:00,
2013-07-29 18:27:00,67.9,65.0,30.09,SW,225,0.0,0.0,90,0.00,,,0.01,Rainwise IP-100,2013-07-29 22:27:00,
2013-07-29 18:32:00,67.4,65.0,30.09,SSW,202,0.0,0.0,91,0.00,,,0.01,Rainwise IP-100,2013-07-29 22:32:00,
2013-07-29 18:37:00,67.1,64.0,30.09,SSW,202,0.0,0.0,91,0.00,,,0.01,Rainwise IP-100,2013-07-29 22:37:00,
2013-07-29 18:42:00,66.9,65.0,30.09,SSW,202,0.0,0.0,92,0.00,,,0.01,Rainwise IP-100,2013-07-29 22:42:00,
2013-07-29 18:47:00,66.8,64.0,30.10,SSE,157,0.0,0.0,92,0.00,,,0.01,Rainwise IP-100,2013-07-29 22:47:00,
2013-07-29 18:52:00,66.8,64.0,30.09,SSW,202,0.0,0.0,92,0.00,,,0.01,Rainwise IP-100,2013-07-29 22:52:00,
2013-07-29 18:57:00,66.7,64.0,30.09,SSE,157,0.0,0.0,92,0.00,,,0.01,Rainwise IP-100,2013-07-29 22:57:00,
2013-07-29 19:02:00,66.8,64.0,30.09,SSE,157,0.0,0.0,93,0.00,,,0.01,Rainwise IP-100,2013-07-29 23:02:00,
2013-07-29 19:07:00,66.8,64.0,30.10,South,180,0.0,0.0,93,0.00,,,0.01,Rainwise IP-100,2013-07-29 23:07:00,
2013-07-29 19:12:00,66.7,64.0,30.10,South,180,0.0,0.0,93,0.00,,,0.01,Rainwise IP-100,2013-07-29 23:12:00,
2013-07-29 19:17:00,66.5,64.0,30.10,NW,315,0.0,0.0,93,0.00,,,0.01,Rainwise IP-100,2013-07-29 23:17:00,
2013-07-29 19:22:00,66.2,64.0,30.10,SSW,202,0.0,0.0,93,0.00,,,0.01,Rainwise IP-100,2013-07-29 23:22:00,
2013-07-29 19:27:00,66.1,64.0,30.10,SSW,202,0.0,0.0,94,0.00,,,0.01,Rainwise IP-100,2013-07-29 23:27:00,
2013-07-29 19:32:00,66.0,64.0,30.11,ESE,112,0.0,0.0,94,0.00,,,0.01,Rainwise IP-100,2013-07-29 23:32:00,
2013-07-29 19:37:00,65.8,63.0,30.10,SSW,202,0.0,0.0,94,0.00,,,0.01,Rainwise IP-100,2013-07-29 23:37:00,
2013-07-29 19:42:00,65.6,63.0,30.11,SSW,202,0.0,0.0,94,0.00,,,0.01,Rainwise IP-100,2013-07-29 23:42:00,
2013-07-29 19:47:00,65.4,64.0,30.10,SSE,157,0.0,0.0,95,0.00,,,0.01,Rainwise IP-100,2013-07-29 23:47:00,
2013-07-29 19:52:00,65.3,63.0,30.11,SSE,157,0.0,0.0,95,0.00,,,0.01,Rainwise IP-100,2013-07-29 23:52:00,
2013-07-29 19:57:00,65.1,64.0,30.10,SSE,157,0.0,0.0,96,0.00,,,0.01,Rainwise IP-100,2013-07-29 23:57:00,
2013-07-29 20:02:00,64.9,64.0,30.11,SSE,157,0.0,0.0,96,0.00,,,0.01,Rainwise IP-100,2013-07-30 00:02:00,
2013-07-29 20:07:00,64.8,63.0,30.11,SSE,157,0.0,0.0,96,0.00,,,0.01,Rainwise IP-100,2013-07-30 00:07:00,
2013-07-29 20:12:00,64.6,63.0,30.11,South,180,0.0,0.0,97,0.00,,,0.01,Rainwise IP-100,2013-07-30 00:12:00,
2013-07-29 20:17:00,64.4,63.0,30.11,SSE,157,0.0,0.0,97,0.00,,,0.01,Rainwise IP-100,2013-07-30 00:17:00,
2013-07-29 20:22:00,64.3,63.0,30.11,SSW,202,0.0,0.0,97,0.00,,,0.01,Rainwise IP-100,2013-07-30 00:22:00,
2013-07-29 20:27:00,64.2,63.0,30.11,SSW,202,0.0,0.0,98,0.00,,,0.01,Rainwise IP-100,2013-07-30 00:27:00,
2013-07-29 20:32:00,64.0,63.0,30.11,SSW,202,0.0,0.0,98,0.00,,,0.01,Rainwise IP-100,2013-07-30 00:32:00,
2013-07-29 20:37:00,64.0,63.0,30.11,SSW,202,0.0,0.0,98,0.00,,,0.01,Rainwise IP-100,2013-07-30 00:37:00,
2013-07-29 20:42:00,63.9,63.0,30.12,SSW,202,0.0,0.0,98,0.00,,,0.01,Rainwise IP-100,2013-07-30 00:42:00,
2013-07-29 20:47:00,63.8,63.0,30.11,SSW,202,0.0,0.0,99,0.00,,,0.01,Rainwise IP-100,2013-07-30 00:47:00,
2013-07-29 20:52:00,63.8,63.0,30.11,South,180,0.0,0.0,99,0.00,,,0.01,Rainwise IP-100,2013-07-30 00:52:00,
2013-07-29 20:57:00,63.7,63.0,30.12,SSE,157,0.0,0.0,99,0.00,,,0.01,Rainwise IP-100,2013-07-30 00:57:00,
2013-07-29 21:02:00,63.6,63.0,30.12,SSE,157,0.0,0.0,99,0.00,,,0.01,Rainwise IP-100,2013-07-30 01:02:00,
2013-07-29 21:07:00,63.5,63.0,30.11,South,180,0.0,0.0,99,0.00,,,0.01,Rainwise IP-100,2013-07-30 01:07:00,
2013-07-29 21:12:00,63.5,63.0,30.12,South,180,0.0,0.0,99,0.00,,,0.01,Rainwise IP-100,2013-07-30 01:12:00,
2013-07-29 21:17:00,63.5,63.0,30.12,SW,225,0.0,0.0,99,0.00,,,0.01,Rainwise IP-100,2013-07-30 01:17:00,
2013-07-29 21:22:00,63.5,63.0,30.12,SSW,202,0.0,0.0,100,0.00,,,0.01,Rainwise IP-100,2013-07-30 01:22:00,
2013-07-29 21:27:00,63.5,63.0,30.12,SSW,202,0.0,0.0,100,0.00,,,0.01,Rainwise IP-100,2013-07-30 01:27:00,
2013-07-29 21:32:00,63.4,63.0,30.12,SSE,157,0.0,0.0,100,0.00,,,0.01,Rainwise IP-100,2013-07-30 01:32:00,
2013-07-29 21:37:00,63.4,63.0,30.12,WSW,247,0.0,0.0,100,0.00,,,0.01,Rainwise IP-100,2013-07-30 01:37:00,
2013-07-29 21:42:00,63.3,63.0,30.12,SSW,202,0.0,0.0,100,0.00,,,0.01,Rainwise IP-100,2013-07-30 01:42:00,
2013-07-29 21:47:00,63.3,63.0,30.12,SSW,202,0.0,0.0,100,0.00,,,0.01,Rainwise IP-100,2013-07-30 01:47:00,
2013-07-29 21:52:00,63.3,63.0,30.13,SSW,202,0.0,0.0,100,0.00,,,0.01,Rainwise IP-100,2013-07-30 01:52:00,
2013-07-29 21:57:00,63.3,63.0,30.13,SSW,202,0.0,0.0,100,0.00,,,0.01,Rainwise IP-100,2013-07-30 01:57:00,
2013-07-29 22:02:00,63.3,63.0,30.12,SSE,157,0.0,0.0,100,0.00,,,0.01,Rainwise IP-100,2013-07-30 02:02:00,
2013-07-29 22:07:00,63.3,63.0,30.12,SW,225,0.0,0.0,100,0.00,,,0.01,Rainwise IP-100,2013-07-30 02:07:00,
2013-07-29 22:12:00,63.3,63.0,30.12,South,180,0.0,0.0,100,0.00,,,0.01,Rainwise IP-100,2013-07-30 02:12:00,
2013-07-29 22:17:00,63.3,63.0,30.12,SSW,202,0.0,0.0,100,0.00,,,0.01,Rainwise IP-100,2013-07-30 02:17:00,
2013-07-29 22:22:00,63.3,63.0,30.12,SSW,202,0.0,0.0,100,0.00,,,0.01,Rainwise IP-100,2013-07-30 02:22:00,
2013-07-29 22:27:00,63.3,63.0,30.12,SSW,202,0.0,0.0,100,0.00,,,0.01,Rainwise IP-100,2013-07-30 02:27:00,
2013-07-29 22:32:00,63.3,63.0,30.12,SSE,157,0.0,0.0,100,0.00,,,0.01,Rainwise IP-100,2013-07-30 02:32:00,
2013-07-29 22:37:00,63.2,63.0,30.12,South,180,0.0,0.0,100,0.00,,,0.01,Rainwise IP-100,2013-07-30 02:37:00,
2013-07-29 22:42:00,63.2,63.0,30.12,WSW,247,0.0,0.0,100,0.00,,,0.01,Rainwise IP-100,2013-07-30 02:42:00,
2013-07-29 22:47:00,63.2,63.0,30.12,WSW,247,0.0,0.0,100,0.00,,,0.01,Rainwise IP-100,2013-07-30 02:47:00,
2013-07-29 22:52:00,63.2,63.0,30.13,WSW,247,0.0,0.0,100,0.00,,,0.01,Rainwise IP-100,2013-07-30 02:52:00,
2013-07-29 22:57:00,63.2,63.0,30.13,WNW,292,0.0,0.0,100,0.00,,,0.01,Rainwise IP-100,2013-07-30 02:57:00,
2013-07-29 23:02:00,63.3,63.0,30.13,WNW,292,0.0,0.0,100,0.00,,,0.01,Rainwise IP-100,2013-07-30 03:02:00,
2013-07-29 23:07:00,63.3,63.0,30.12,WNW,292,0.0,0.0,100,0.00,,,0.01,Rainwise IP-100,2013-07-30 03:07:00,
2013-07-29 23:12:00,63.4,63.0,30.11,ESE,112,0.0,0.0,100,0.00,,,0.01,Rainwise IP-100,2013-07-30 03:12:00,
2013-07-29 23:17:00,63.4,63.0,30.11,ESE,112,0.0,0.0,100,0.00,,,0.01,Rainwise IP-100,2013-07-30 03:17:00,
2013-07-29 23:22:00,63.4,63.0,30.11,ESE,112,0.0,0.0,100,0.00,,,0.01,Rainwise IP-100,2013-07-30 03:22:00,
2013-07-29 23:27:00,63.3,63.0,30.12,ESE,112,0.0,0.0,100,0.00,,,0.01,Rainwise IP-100,2013-07-30 03:27:00,
2013-07-29 23:32:00,63.3,63.0,30.11,ESE,112,0.0,0.0,100,0.00,,,0.01,Rainwise IP-100,2013-07-30 03:32:00,
2013-07-29 23:37:00,63.3,63.0,30.11,ESE,112,0.0,0.0,100,0.00,,,0.01,Rainwise IP-100,2013-07-30 03:37:00,
2013-07-29 23:42:00,63.3,63.0,30.11,ESE,112,0.0,0.0,100,0.00,,,0.01,Rainwise IP-100,2013-07-30 03:42:00,
2013-07-29 23:47:00,63.3,63.0,30.11,ESE,112,0.0,0.0,100,0.00,,,0.01,Rainwise IP-100,2013-07-30 03:47:00,
2013-07-29 23:52:00,63.3,63.0,30.11,ESE,112,0.0,0.0,100,0.00,,,0.01,Rainwise IP-100,2013-07-30 03:52:00,
2013-07-29 23:57:00,63.2,63.0,30.11,ESE,112,0.0,0.0,100,0.00,,,0.01,Rainwise IP-100,2013-07-30 03:57:00,